SCP
-0 -0 -0 -0 -0 -0 -0 -0 0 0 0 -0 -0 -0 -0 0 0 0 0 0 -0 -0 0 -0 -0 0 -0 -0 0 0 -0 0 0 0 -0 0 0 -0 0 -0 0 0 0 -0 -0
-0 -0 -0 -0 -0 -0 0 -0 0 0 0 0 0 -0 0 0 0 0 0 -0 0 -0 0 0 -0 -0 -0 -0 -0 -0 0 0 0 0 0 -0 0 -0 -0 0 0 -0 -0 -0 -0
-0 -0 -0 -0 -0 -0 0 0 0 0 0 0 0 0 0 0 0 0 0 0 0 0 -0 -0 -0 -0 0 0 0 -0 0 0 -0 0 -0 0 0 -0 -0 0 -0 -0 -0 -0 -0
-0 0 -0 -0 -0 -0 0 0 0 0 0 0 0 0 -0 -0 0 0 0 0 0 0 -0 -0 -0 -0 0 0 0 -0 -0 -0 0 0 0 0 0 0 -0 -0 -0 -0 -0 -0 -0
-0 0 0 0 -0 -0 -0 0 0 0 0 0 0 0 0 0 0 0 -0 -0 -0 0 0 0 0 0 0 0 -0 -0 0 0 0 -0 0 -0 0 0 -0 -0 -0 -0 -0 -0 -0
0 0 0 0 0 0 0 0 0 0 0 0 0 0 0 -0 0 0 0 0 0 0 0 0 0 0 0 0 0 0 0 0 0 0 0 0 0 -0 -0 -0 -0 -0 -0 -0 -0
0 0 0 0 -0 0 0 0 0 0 0 0 0 0 0 -0 0 0 0 -0 0 0 0 0 0 0 0 0 0 -0 0 0 0 0 0 0 0 -0 -0 -0 -0 -0 -0 -0 -0
0 0 0 0 0 0 0 0 0 0 0 0 0 0 -0 0 0 0 -0 -0 0 0 0 0 0 0 0 0 0 -0 -0 0 0 0 0 0 0 0 0 -0 -0 -0 -0 -0 0
0 0 0 0 0 0 0 0 0 0 0 0 0 0 -0 0 0 0 0 0 0 0 0 0 0 0 0 0 -0 0 0 0 0 -0 -0 0 0 0 0 -0 -0 -0 0 -0 -0
0 0 0 0 0 0 0 0 0 0 0 0 0 0 0 0 0 0 0 0 0 0 0 0 0 0 0 0 0 0 -0 0 0 -0 0 0 0 0 -0 -0 -0 -0 0 0 0
0 0 0 0 0 0 0 0 0 0 0 0 0 0 0 0 0 0 0 0 0 0 0 0 0 0 0 0 0 0 0 0 0 0 0 0 0 -0 -0 0 0 0 0 0 0
0 0 0 0 0 0 -0 0 0 0 0 0 0 0 -0 0 0 0 0 0 0 0 0 0 0 0 0 0 0 0 0 0 0 0 0 0 0 0 0 -0 -0 -0 0 0 0
0 0 0 0 0 0 0 -0 0 0 -0 0 0 0 0 0 0 0 0 0 0 0 0 -0 0 0 0 0 0 0 0 0 0 0 0 0 0 0 -0 0 0 -0 -0 0 0
0 0 0 0 0 0 0 0 0 -0 0 -0 0 0 0 0 0 0 0 0 0 0 0 0 0 0 0 0 0 0 0 0 0 0 -0 0 0 0 0 -0 -0 -0 -0 -0 0
0 0 0 0 0 0 0 0 0 0 0 0 0 0 0 0 0 0 0 0 0 0 0 0 0 0 0 -0 0 -0 0 0 0 0 -0 0 0 0 0 0 -0 -0 -0 -0 0
0 0 0 0 0 0 0 0 0 0 0 0 0 0 0 0 0 0 0 0 0 0 0 0 0 0 0 0 0 0 0 0 0 0 -0 0 0 0 0 -0 -0 -0 -0 -0 0
0 0 0 0 0 0 0 0 0 0 0 0 0 0 0 0 0 0 0 0 0 0 0 0 0 0 0 0 0 0 0 0 0 0 0 0 0 -0 -0 -0 -0 -0 -0 0 0
0 0 0 0 0 0 0 0 0 0 0 0 0 0 0 0 0 0 0 0 0 0 0 0 0 0 0 0 0 0 0 0 0 0 0 -0 0 0 -0 -0 0 0 -0 0 0
0 0 0 0 0 0 0 0 0 0 0 0 0 0 0 0 0 0 0 0 0 0 0 0 0 0 0 0 0 0 0 0 0 0 -0 -0 0 0 0 0 -0 -0 -0 0 0
0 0 0 0 0 0 0 0 0 0 0 0 0 0 0 0 0 0 0 0 0 0 0 0 0 0 0 0 0 0 0 0 0 -0 0 0 0 0 0 0 0 -0 -0 -0 -0
0 0 0 0 0 0 0 0 0 0 0 0 0 0 0 0 0 0 0 0 0 0 0 0 0 0 0 0 0 0 0 0 0 0 -0 0 0 0 0 -0 -0 -0 -0 0 0
0 0 0 0 0 0 0 0 0 0 0 0 0 0 0 0 0 0 0 0 0 0 0 0 0 0 0 0 0 0 0 0 0 0 0 0 0 -0 -0 0 0 -0 0 0 0
0 0 0 0 0 0 0 0 0 0 -0 -0 -0 -0 0 0 0 0 0 0 0 0 0 0 0 0 0 0 0 0 0 0 0 0 0 0 0 0 -0 0 0 -0 -0 0 -0
0 0 0 0 0 0 0 0 0 0 0 0 -0 -0 0 -0 0 0 0 0 0 0 0 0 0 0 0 0 0 0 0 0 0 0 0 0 0 0 0 -0 0 -0 -0 -0 -0
0 0 0 0 0 0 0 0 0 0 0 0 0 -0 -0 -0 0 0 0 0 0 0 0 0 0 0 0 0 0 0 0 0 0 0 0 0 0 0 0 0 -0 -0 0 0 0
0 0 0 0 0 0 0 0 0 0 0 0 0 0 -0 -0 -0 0 0 0 0 0 0 0 0 0 0 0 0 0 0 0 0 0 0 0 0 0 0 0 0 -0 0 0 0
0 0 0 0 0 0 0 0 0 0 0 0 0 0 0 -0 -0 -0 -0 0 0 0 0 0 0 0 0 0 0 0 0 0 0 0 0 0 0 0 0 0 -0 -0 0 0 0
Wind_Speed_500mb
26 27 27 27 27 28 28 28 28 27 27 28 28 29 30 28 24 21 10 7 3 3 4 5 5 9 16 14 18 7 4 7 12 13 9 24 9 6 10 30 10 6 32 58 65
26 26 28 29 30 30 30 30 31 31 31 30 29 31 32 33 27 15 7 10 8 4 4 11 10 12 9 8 12 8 6 15 15 15 12 21 19 15 12 20 14 28 38 64 63
30 31 29 29 31 32 32 33 32 33 32 33 31 31 32 31 24 11 23 26 19 15 11 14 9 13 11 9 11 11 8 8 8 23 44 26 14 10 27 3 16 42 64 70 65
33 33 33 34 33 33 34 34 34 34 34 34 32 32 32 23 7 17 16 4 11 20 14 13 5 3 2 5 11 3 3 9 24 33 30 19 16 15 12 8 12 46 72 74 66
36 36 35 37 37 37 37 36 35 35 35 34 32 34 29 17 34 19 21 25 33 19 16 12 8 12 6 9 8 6 5 17 38 41 33 27 17 12 12 8 27 56 62 67 60
35 38 40 39 41 41 39 38 38 36 35 35 32 32 28 16 35 35 40 45 40 21 17 15 7 19 6 12 9 18 33 30 32 29 20 19 9 2 11 20 42 55 54 54 58
40 38 38 42 43 44 42 40 41 39 35 35 33 34 36 56 29 27 31 37 33 29 23 21 17 9 15 9 21 28 14 17 12 11 7 33 9 6 29 29 36 47 55 53 51
45 45 43 41 44 45 43 42 43 39 34 33 33 31 28 36 49 51 51 54 34 28 30 26 17 10 3 27 10 12 9 7 7 12 17 8 6 11 30 38 34 38 45 47 47
47 49 50 48 46 47 42 39 36 30 29 28 26 20 25 26 37 24 35 45 40 31 32 24 10 4 11 11 8 10 7 6 4 23 10 5 5 21 35 38 37 35 41 42 44
46 48 50 51 52 48 40 28 15 13 11 15 21 8 34 13 10 11 14 20 31 33 24 16 11 6 6 8 13 11 6 3 10 15 10 11 6 22 42 38 41 42 41 42 42
50 50 48 48 50 39 36 13 8 10 13 16 11 14 10 16 13 16 9 17 28 26 13 14 8 13 20 16 9 11 6 12 5 13 10 14 10 26 40 36 33 41 45 45 45
48 52 50 46 47 27 22 18 25 18 25 30 54 60 56 44 20 11 18 19 16 13 11 9 15 21 5 12 10 9 7 6 3 7 6 9 5 15 34 40 44 46 47 50 49
48 50 52 45 34 26 11 26 25 29 11 30 41 46 68 49 26 39 20 17 9 15 16 18 15 16 13 10 10 8 11 9 5 8 7 11 6 10 17 31 38 46 55 53 58
47 50 53 48 19 36 7 23 26 20 6 15 11 18 38 36 17 64 37 14 6 20 18 10 9 15 13 13 14 7 17 13 16 7 6 6 9 11 17 30 34 47 53 59 62
47 46 49 47 43 36 24 24 16 2 9 6 9 2 13 32 14 31 60 37 15 12 17 18 19 16 13 15 18 17 14 15 8 4 7 1 3 12 15 19 35 47 58 64 64
46 45 49 46 39 30 34 19 2 8 16 12 4 4 6 11 8 10 22 31 29 9 3 17 12 18 18 11 29 13 15 14 10 7 2 13 12 11 12 22 32 42 58 67 68
47 42 43 41 38 34 25 10 5 8 12 12 10 13 10 8 8 6 17 19 15 13 9 2 9 6 13 10 9 13 13 2 1 2 11 6 5 22 14 16 26 45 56 66 69
47 38 18 26 22 18 12 6 9 7 10 8 13 19 4 15 10 12 16 21 9 13 11 13 11 18 10 23 17 17 17 12 12 8 7 7 11 13 11 28 47 60 65 67 69
45 32 5 27 21 9 2 3 11 2 10 16 12 12 12 12 14 7 15 23 32 17 15 14 12 5 12 8 29 10 11 15 13 5 6 6 16 20 2 13 31 44 47 59 72
41 32 7 27 12 0 7 7 6 9 12 9 9 9 8 13 18 14 12 8 14 20 8 15 6 11 18 8 6 19 18 8 5 6 5 9 11 13 8 15 20 22 50 63 70
33 12 12 27 4 3 5 10 7 5 29 13 9 9 8 9 7 9 9 10 17 18 13 13 7 7 14 19 19 8 9 12 13 9 12 2 13 16 13 20 31 33 57 73 71
19 6 17 14 3 3 4 4 9 6 10 5 6 8 5 10 9 7 9 7 35 16 28 12 11 9 22 3 13 14 17 14 11 9 3 8 14 6 16 16 33 40 69 73 67
28 12 13 11 4 6 11 8 7 4 0 5 7 4 4 7 9 10 8 23 23 22 10 7 8 4 3 8 6 33 12 11 14 8 16 12 14 8 7 16 41 34 56 72 67
11 6 10 16 9 4 8 8 9 14 7 9 7 9 8 5 11 13 14 17 48 45 46 9 5 22 17 11 12 13 22 17 17 10 12 14 13 11 6 16 23 48 55 63 74
6 2 4 6 6 7 4 4 5 8 10 11 6 8 6 7 9 11 6 13 19 15 17 7 13 14 25 8 6 14 20 21 31 16 24 22 19 19 22 21 40 61 67 64 73
5 3 2 9 15 6 5 5 3 3 6 8 6 12 13 6 9 18 19 5 16 15 17 16 9 13 20 29 30 10 11 33 27 12 11 13 17 20 21 29 32 47 57 70 84
8 7 4 7 6 1 6 2 6 21 15 23 19 21 19 19 23 36 42 39 29 17 9 9 8 12 28 14 9 24 45 16 11 10 22 24 24 10 13 19 40 44 45 59 82
Wind_Direction_500mb
332 329 325 322 319 317 315 314 313 311 310 311 313 316 317 319 327 330 352 328 359 294 341 314 295 224 203 227 218 211 62 168 184 159 180 150 123 103 114 128 102 97 141 161 156
335 329 324 320 317 312 307 307 306 306 305 303 306 310 314 317 325 342 22 98 98 70 336 313 328 235 212 227 197 158 146 211 179 156 145 136 120 144 134 128 76 105 136 155 156
340 334 327 320 314 309 305 303 300 300 299 298 300 301 307 318 327 140 118 97 61 27 356 321 296 255 212 200 199 184 211 182 104 128 138 134 113 124 131 189 167 150 152 160 162
348 340 333 325 317 309 303 298 297 296 295 294 296 294 298 307 277 183 187 215 354 357 354 359 316 218 1 302 191 186 287 132 129 131 126 118 116 111 45 322 207 161 162 164 167
343 340 335 330 322 315 307 300 294 289 289 289 290 290 295 274 245 238 237 274 298 314 311 333 19 16 354 289 129 76 45 74 123 122 110 118 86 109 58 61 155 150 157 165 169
340 336 334 329 324 317 310 305 296 286 281 280 280 282 284 254 255 256 259 264 273 284 273 295 312 341 291 15 61 78 83 95 115 115 117 110 120 42 104 128 138 148 156 166 175
340 337 332 329 324 318 315 308 295 279 274 274 273 274 268 255 256 249 249 251 256 255 259 271 303 322 310 110 110 91 75 60 88 98 112 121 39 60 144 145 144 160 169 175 180
338 336 335 332 326 320 317 311 298 281 269 266 266 271 263 277 262 254 252 256 254 235 230 259 299 287 84 120 61 85 55 100 226 164 179 38 239 161 163 155 161 173 180 183 189
335 333 332 332 328 326 322 316 307 287 268 254 252 246 266 254 263 262 244 246 241 230 219 244 278 187 129 101 58 23 178 159 162 209 151 184 226 179 179 174 174 187 193 199 199
335 333 331 331 330 332 327 322 314 307 242 224 230 256 246 235 227 211 241 229 210 206 218 208 192 100 52 95 189 195 229 141 187 195 164 178 218 164 188 191 190 200 204 205 205
337 334 332 333 333 343 338 317 282 279 247 226 217 241 201 227 268 239 284 194 175 178 163 170 118 189 210 188 163 164 200 177 204 178 138 198 170 183 191 209 198 202 207 213 214
339 336 333 336 339 359 3 68 42 334 304 262 257 252 247 261 291 266 192 173 164 167 139 75 195 211 128 154 146 145 147 254 316 153 123 163 244 181 196 210 204 207 215 221 219
339 337 333 338 341 1 19 36 355 330 253 286 247 247 244 245 228 246 194 190 168 141 181 165 208 153 163 173 162 159 185 177 193 148 60 133 315 195 214 215 216 219 221 225 225
337 338 334 335 336 342 327 334 333 316 352 272 239 245 211 210 258 238 212 187 184 179 134 188 209 159 166 196 141 211 200 143 133 116 205 160 271 241 202 207 220 216 213 222 226
335 338 334 335 326 332 315 319 322 162 320 236 202 278 193 182 159 212 219 206 187 178 130 216 172 171 185 188 161 225 149 160 132 126 98 273 22 261 167 209 220 216 214 217 224
333 334 330 326 322 314 315 319 257 47 246 319 63 75 79 257 267 106 168 192 192 143 134 194 195 171 195 169 184 134 84 51 48 82 291 215 169 260 184 210 203 218 213 212 222
335 335 328 321 315 304 310 313 73 179 330 336 343 359 319 230 227 188 170 169 154 140 190 147 211 220 162 139 149 106 94 8 313 334 223 283 152 245 235 216 192 198 208 210 219
339 341 343 15 326 291 292 42 175 232 290 7 331 302 330 352 253 208 155 186 210 123 135 155 205 191 208 191 156 173 152 160 189 189 255 99 231 251 247 201 187 197 207 207 212
336 346 348 354 355 330 239 139 211 24 340 334 318 27 335 348 360 320 199 207 189 164 150 150 245 274 190 177 158 182 154 180 98 7 62 244 289 296 91 137 159 179 184 199 207
336 337 13 348 336 254 72 244 296 347 341 2 45 2 328 326 359 19 173 217 195 189 143 198 167 212 191 135 153 167 151 94 1 137 203 280 280 248 307 190 173 160 180 203 205
334 332 8 340 129 124 170 241 277 14 17 15 4 325 320 350 302 301 285 11 358 199 138 145 110 262 115 197 179 129 135 54 115 126 169 218 262 216 228 198 180 185 190 200 202
350 336 354 337 50 27 172 226 315 344 14 310 269 241 264 341 318 304 317 317 10 311 191 196 138 195 198 163 212 161 165 141 131 217 169 152 270 244 231 190 180 189 194 203 204
337 303 11 14 83 338 316 292 265 283 155 10 323 280 9 319 319 302 288 317 347 13 21 311 194 106 68 20 350 201 188 127 110 96 185 148 265 343 165 153 188 200 197 200 206
333 350 339 48 76 75 352 286 312 334 269 258 241 266 313 286 211 279 310 314 317 314 301 213 198 184 192 210 144 169 181 175 146 144 170 209 252 292 227 174 181 208 216 210 203
309 301 2 313 337 339 270 274 327 342 340 326 316 227 276 289 318 247 278 298 313 358 1 59 218 184 202 211 158 172 176 170 194 178 187 225 202 235 227 205 204 206 214 216 216
280 291 342 297 288 300 260 260 320 358 311 278 240 331 0 289 262 289 327 302 252 334 9 352 301 203 207 219 239 259 222 185 196 166 188 203 239 221 227 221 213 214 214 218 221
232 257 293 248 257 215 234 293 307 319 280 280 299 322 303 274 315 296 280 260 263 293 356 305 349 4 223 163 218 252 232 194 184 169 173 206 223 210 188 201 212 219 215 224 222
Wind_Speed_850mb
26 27 27 27 27 28 28 28 28 27 27 28 28 29 30 28 24 21 10 7 3 3 4 5 5 9 16 14 18 7 4 7 12 13 9 24 9 6 10 30 10 6 32 58 65
26 26 28 29 30 30 30 30 31 31 31 30 29 31 32 33 27 15 7 10 8 4 4 11 10 12 9 8 12 8 6 15 15 15 12 21 19 15 12 20 14 28 38 64 63
30 31 29 29 31 32 32 33 32 33 32 33 31 31 32 31 24 11 23 26 19 15 11 14 9 13 11 9 11 11 8 8 8 23 44 26 14 10 27 3 16 42 64 70 65
33 33 33 34 33 33 34 34 34 34 34 34 32 32 32 23 7 17 16 4 11 20 14 13 5 3 2 5 11 3 3 9 24 33 30 19 16 15 12 8 12 46 72 74 66
36 36 35 37 37 37 37 36 35 35 35 34 32 34 29 17 34 19 21 25 33 19 16 12 8 12 6 9 8 6 5 17 38 41 33 27 17 12 12 8 27 56 62 67 60
35 38 40 39 41 41 39 38 38 36 35 35 32 32 28 16 35 35 40 45 40 21 17 15 7 19 6 12 9 18 33 30 32 29 20 19 9 2 11 20 42 55 54 54 58
40 38 38 42 43 44 42 40 41 39 35 35 33 34 36 56 29 27 31 37 33 29 23 21 17 9 15 9 21 28 14 17 12 11 7 33 9 6 29 29 36 47 55 53 51
45 45 43 41 44 45 43 42 43 39 34 33 33 31 28 36 49 51 51 54 34 28 30 26 17 10 3 27 10 12 9 7 7 12 17 8 6 11 30 38 34 38 45 47 47
47 49 50 48 46 47 42 39 36 30 29 28 26 20 25 26 37 24 35 45 40 31 32 24 10 4 11 11 8 10 7 6 4 23 10 5 5 21 35 38 37 35 41 42 44
46 48 50 51 52 48 40 28 15 13 11 15 21 8 34 13 10 11 14 20 31 33 24 16 11 6 6 8 13 11 6 3 10 15 10 11 6 22 42 38 41 42 41 42 42
50 50 48 48 50 39 36 13 8 10 13 16 11 14 10 16 13 16 9 17 28 26 13 14 8 13 20 16 9 11 6 12 5 13 10 14 10 26 40 36 33 41 45 45 45
48 52 50 46 47 27 22 18 25 18 25 30 54 60 56 44 20 11 18 19 16 13 11 9 15 21 5 12 10 9 7 6 3 7 6 9 5 15 34 40 44 46 47 50 49
48 50 52 45 34 26 11 26 25 29 11 30 41 46 68 49 26 39 20 17 9 15 16 18 15 16 13 10 10 8 11 9 5 8 7 11 6 10 17 31 38 46 55 53 58
47 50 53 48 19 36 7 23 26 20 6 15 11 18 38 36 17 64 37 14 6 20 18 10 9 15 13 13 14 7 17 13 16 7 6 6 9 11 17 30 34 47 53 59 62
47 46 49 47 43 36 24 24 16 2 9 6 9 2 13 32 14 31 60 37 15 12 17 18 19 16 13 15 18 17 14 15 8 4 7 1 3 12 15 19 35 47 58 64 64
46 45 49 46 39 30 34 19 2 8 16 12 4 4 6 11 8 10 22 31 29 9 3 17 12 18 18 11 29 13 15 14 10 7 2 13 12 11 12 22 32 42 58 67 68
47 42 43 41 38 34 25 10 5 8 12 12 10 13 10 8 8 6 17 19 15 13 9 2 9 6 13 10 9 13 13 2 1 2 11 6 5 22 14 16 26 45 56 66 69
47 38 18 26 22 18 12 6 9 7 10 8 13 19 4 15 10 12 16 21 9 13 11 13 11 18 10 23 17 17 17 12 12 8 7 7 11 13 11 28 47 60 65 67 69
45 32 5 27 21 9 2 3 11 2 10 16 12 12 12 12 14 7 15 23 32 17 15 14 12 5 12 8 29 10 11 15 13 5 6 6 16 20 2 13 31 44 47 59 72
41 32 7 27 12 0 7 7 6 9 12 9 9 9 8 13 18 14 12 8 14 20 8 15 6 11 18 8 6 19 18 8 5 6 5 9 11 13 8 15 20 22 50 63 70
33 12 12 27 4 3 5 10 7 5 29 13 9 9 8 9 7 9 9 10 17 18 13 13 7 7 14 19 19 8 9 12 13 9 12 2 13 16 13 20 31 33 57 73 71
19 6 17 14 3 3 4 4 9 6 10 5 6 8 5 10 9 7 9 7 35 16 28 12 11 9 22 3 13 14 17 14 11 9 3 8 14 6 16 16 33 40 69 73 67
28 12 13 11 4 6 11 8 7 4 0 5 7 4 4 7 9 10 8 23 23 22 10 7 8 4 3 8 6 33 12 11 14 8 16 12 14 8 7 16 41 34 56 72 67
11 6 10 16 9 4 8 8 9 14 7 9 7 9 8 5 11 13 14 17 48 45 46 9 5 22 17 11 12 13 22 17 17 10 12 14 13 11 6 16 23 48 55 63 74
6 2 4 6 6 7 4 4 5 8 10 11 6 8 6 7 9 11 6 13 19 15 17 7 13 14 25 8 6 14 20 21 31 16 24 22 19 19 22 21 40 61 67 64 73
5 3 2 9 15 6 5 5 3 3 6 8 6 12 13 6 9 18 19 5 16 15 17 16 9 13 20 29 30 10 11 33 27 12 11 13 17 20 21 29 32 47 57 70 84
8 7 4 7 6 1 6 2 6 21 15 23 19 21 19 19 23 36 42 39 29 17 9 9 8 12 28 14 9 24 45 16 11 10 22 24 24 10 13 19 40 44 45 59 82
Wind_Direction_850mb
332 329 325 322 319 317 315 314 313 311 310 311 313 316 317 319 327 330 352 328 359 294 341 314 295 224 203 227 218 211 62 168 184 159 180 150 123 103 114 128 102 97 141 161 156
335 329 324 320 317 312 307 307 306 306 305 303 306 310 314 317 325 342 22 98 98 70 336 313 328 235 212 227 197 158 146 211 179 156 145 136 120 144 134 128 76 105 136 155 156
340 334 327 320 314 309 305 303 300 300 299 298 300 301 307 318 327 140 118 97 61 27 356 321 296 255 212 200 199 184 211 182 104 128 138 134 113 124 131 189 167 150 152 160 162
348 340 333 325 317 309 303 298 297 296 295 294 296 294 298 307 277 183 187 215 354 357 354 359 316 218 1 302 191 186 287 132 129 131 126 118 116 111 45 322 207 161 162 164 167
343 340 335 330 322 315 307 300 294 289 289 289 290 290 295 274 245 238 237 274 298 314 311 333 19 16 354 289 129 76 45 74 123 122 110 118 86 109 58 61 155 150 157 165 169
340 336 334 329 324 317 310 305 296 286 281 280 280 282 284 254 255 256 259 264 273 284 273 295 312 341 291 15 61 78 83 95 115 115 117 110 120 42 104 128 138 148 156 166 175
340 337 332 329 324 318 315 308 295 279 274 274 273 274 268 255 256 249 249 251 256 255 259 271 303 322 310 110 110 91 75 60 88 98 112 121 39 60 144 145 144 160 169 175 180
338 336 335 332 326 320 317 311 298 281 269 266 266 271 263 277 262 254 252 256 254 235 230 259 299 287 84 120 61 85 55 100 226 164 179 38 239 161 163 155 161 173 180 183 189
335 333 332 332 328 326 322 316 307 287 268 254 252 246 266 254 263 262 244 246 241 230 219 244 278 187 129 101 58 23 178 159 162 209 151 184 226 179 179 174 174 187 193 199 199
335 333 331 331 330 332 327 322 314 307 242 224 230 256 246 235 227 211 241 229 210 206 218 208 192 100 52 95 189 195 229 141 187 195 164 178 218 164 188 191 190 200 204 205 205
337 334 332 333 333 343 338 317 282 279 247 226 217 241 201 227 268 239 284 194 175 178 163 170 118 189 210 188 163 164 200 177 204 178 138 198 170 183 191 209 198 202 207 213 214
339 336 333 336 339 359 3 68 42 334 304 262 257 252 247 261 291 266 192 173 164 167 139 75 195 211 128 154 146 145 147 254 316 153 123 163 244 181 196 210 204 207 215 221 219
339 337 333 338 341 1 19 36 355 330 253 286 247 247 244 245 228 246 194 190 168 141 181 165 208 153 163 173 162 159 185 177 193 148 60 133 315 195 214 215 216 219 221 225 225
337 338 334 335 336 342 327 334 333 316 352 272 239 245 211 210 258 238 212 187 184 179 134 188 209 159 166 196 141 211 200 143 133 116 205 160 271 241 202 207 220 216 213 222 226
335 338 334 335 326 332 315 319 322 162 320 236 202 278 193 182 159 212 219 206 187 178 130 216 172 171 185 188 161 225 149 160 132 126 98 273 22 261 167 209 220 216 214 217 224
333 334 330 326 322 314 315 319 257 47 246 319 63 75 79 257 267 106 168 192 192 143 134 194 195 171 195 169 184 134 84 51 48 82 291 215 169 260 184 210 203 218 213 212 222
335 335 328 321 315 304 310 313 73 179 330 336 343 359 319 230 227 188 170 169 154 140 190 147 211 220 162 139 149 106 94 8 313 334 223 283 152 245 235 216 192 198 208 210 219
339 341 343 15 326 291 292 42 175 232 290 7 331 302 330 352 253 208 155 186 210 123 135 155 205 191 208 191 156 173 152 160 189 189 255 99 231 251 247 201 187 197 207 207 212
336 346 348 354 355 330 239 139 211 24 340 334 318 27 335 348 360 320 199 207 189 164 150 150 245 274 190 177 158 182 154 180 98 7 62 244 289 296 91 137 159 179 184 199 207
336 337 13 348 336 254 72 244 296 347 341 2 45 2 328 326 359 19 173 217 195 189 143 198 167 212 191 135 153 167 151 94 1 137 203 280 280 248 307 190 173 160 180 203 205
334 332 8 340 129 124 170 241 277 14 17 15 4 325 320 350 302 301 285 11 358 199 138 145 110 262 115 197 179 129 135 54 115 126 169 218 262 216 228 198 180 185 190 200 202
350 336 354 337 50 27 172 226 315 344 14 310 269 241 264 341 318 304 317 317 10 311 191 196 138 195 198 163 212 161 165 141 131 217 169 152 270 244 231 190 180 189 194 203 204
337 303 11 14 83 338 316 292 265 283 155 10 323 280 9 319 319 302 288 317 347 13 21 311 194 106 68 20 350 201 188 127 110 96 185 148 265 343 165 153 188 200 197 200 206
333 350 339 48 76 75 352 286 312 334 269 258 241 266 313 286 211 279 310 314 317 314 301 213 198 184 192 210 144 169 181 175 146 144 170 209 252 292 227 174 181 208 216 210 203
309 301 2 313 337 339 270 274 327 342 340 326 316 227 276 289 318 247 278 298 313 358 1 59 218 184 202 211 158 172 176 170 194 178 187 225 202 235 227 205 204 206 214 216 216
280 291 342 297 288 300 260 260 320 358 311 278 240 331 0 289 262 289 327 302 252 334 9 352 301 203 207 219 239 259 222 185 196 166 188 203 239 221 227 221 213 214 214 218 221
232 257 293 248 257 215 234 293 307 319 280 280 299 322 303 274 315 296 280 260 263 293 356 305 349 4 223 163 218 252 232 194 184 169 173 206 223 210 188 201 212 219 215 224 222